QPF
0.03 0.05 0.04 0.04 0.03 0.05 0.07 0.06 0.06 0.07 0.08 0.07 0.08 0.09 0.08 0.06 0.04 0.03 0.03 0.04 0.05 0.07 0.08 0.08 0.11 0.17 0.15 0.07 0.04 0.03 0.03 0.03 0.03 0.04 0.05 0.06 0.05 0.06 0.06 0.05 0.04 0.04 0.04
0.02 0.02 0.03 0.03 0.02 0.03 0.05 0.07 0.08 0.09 0.09 0.07 0.07 0.07 0.07 0.04 0.03 0.02 0.02 0.03 0.04 0.05 0.05 0.05 0.08 0.12 0.13 0.10 0.07 0.05 0.03 0.03 0.04 0.04 0.06 0.07 0.07 0.07 0.07 0.05 0.04 0.04 0.04
0.02 0.02 0.02 0.03 0.02 0.03 0.05 0.06 0.09 0.11 0.09 0.07 0.07 0.06 0.06 0.04 0.03 0.02 0.02 0.02 0.03 0.04 0.04 0.04 0.04 0.08 0.11 0.10 0.07 0.07 0.05 0.05 0.04 0.05 0.06 0.07 0.07 0.05 0.06 0.06 0.04 0.03 0.03
0.02 0.01 0.02 0.03 0.04 0.04 0.06 0.07 0.09 0.11 0.09 0.08 0.07 0.06 0.06 0.03 0.03 0.02 0.02 0.02 0.02 0.03 0.03 0.03 0.04 0.04 0.08 0.09 0.07 0.07 0.07 0.06 0.05 0.06 0.06 0.06 0.05 0.05 0.05 0.06 0.06 0.06 0.04
0.02 0.02 0.03 0.04 0.05 0.06 0.06 0.07 0.09 0.09 0.09 0.10 0.11 0.07 0.06 0.04 0.03 0.04 0.02 0.02 0.01 0.02 0.03 0.03 0.03 0.04 0.05 0.07 0.08 0.07 0.06 0.07 0.06 0.05 0.06 0.06 0.05 0.05 0.05 0.05 0.06 0.07 0.06
0.02 0.03 0.04 0.05 0.07 0.08 0.08 0.08 0.09 0.08 0.09 0.09 0.10 0.09 0.08 0.07 0.04 0.04 0.03 0.01 0.01 0.02 0.02 0.02 0.02 0.02 0.04 0.05 0.07 0.07 0.06 0.05 0.05 0.05 0.05 0.05 0.05 0.05 0.05 0.04 0.05 0.05 0.05
0.02 0.03 0.04 0.06 0.08 0.08 0.07 0.08 0.08 0.07 0.07 0.08 0.09 0.10 0.08 0.09 0.06 0.03 0.03 0.02 0.01 0.01 0.02 0.01 0.01 0.01 0.02 0.03 0.05 0.06 0.06 0.06 0.05 0.04 0.05 0.06 0.05 0.04 0.04 0.04 0.05 0.06 0.04
0.02 0.02 0.04 0.06 0.07 0.06 0.06 0.07 0.08 0.06 0.06 0.07 0.07 0.10 0.07 0.07 0.07 0.04 0.03 0.02 0.01 0.01 0.02 0.02 0.01 0.01 0.01 0.02 0.03 0.05 0.06 0.05 0.04 0.04 0.04 0.05 0.06 0.05 0.04 0.04 0.05 0.06 0.05
0.02 0.02 0.03 0.03 0.04 0.04 0.04 0.05 0.06 0.05 0.05 0.06 0.06 0.08 0.09 0.05 0.06 0.05 0.04 0.03 0.02 0.01 0.01 0.02 0.01 0.01 0.01 0.01 0.02 0.03 0.04 0.04 0.04 0.05 0.05 0.05 0.06 0.05 0.04 0.04 0.04 0.04 0.05
0.01 0.02 0.02 0.02 0.03 0.03 0.03 0.03 0.04 0.04 0.05 0.08 0.06 0.06 0.07 0.04 0.05 0.05 0.04 0.03 0.03 0.02 0.02 0.02 0.01 0.01 0.01 0.02 0.02 0.03 0.03 0.04 0.05 0.05 0.06 0.06 0.07 0.07 0.05 0.05 0.06 0.06 0.05
0.01 0.01 0.02 0.02 0.02 0.03 0.03 0.03 0.03 0.04 0.05 0.10 0.10 0.08 0.07 0.05 0.05 0.06 0.04 0.03 0.03 0.03 0.02 0.01 0.01 0.01 0.02 0.02 0.03 0.03 0.04 0.04 0.04 0.05 0.06 0.07 0.08 0.09 0.08 0.07 0.06 0.06 0.06
0.01 0.01 0.01 0.01 0.01 0.02 0.02 0.03 0.03 0.03 0.04 0.07 0.09 0.10 0.09 0.06 0.05 0.05 0.04 0.03 0.03 0.02 0.02 0.02 0.01 0.02 0.02 0.02 0.03 0.04 0.04 0.04 0.04 0.05 0.06 0.07 0.09 0.08 0.07 0.06 0.05 0.04 0.04
0.02 0.02 0.02 0.02 0.02 0.02 0.02 0.02 0.03 0.03 0.04 0.04 0.04 0.06 0.06 0.05 0.05 0.03 0.02 0.01 0.02 0.02 0.03 0.03 0.02 0.02 0.03 0.03 0.03 0.03 0.04 0.04 0.04 0.04 0.05 0.06 0.07 0.07 0.07 0.06 0.05 0.04 0.04
0.02 0.02 0.02 0.03 0.02 0.03 0.02 0.02 0.03 0.04 0.05 0.04 0.04 0.03 0.03 0.02 0.02 0.02 0.01 0.01 0.01 0.01 0.02 0.03 0.03 0.02 0.03 0.02 0.03 0.03 0.03 0.03 0.03 0.03 0.03 0.04 0.04 0.05 0.06 0.06 0.06 0.05 0.05
0.02 0.02 0.02 0.03 0.03 0.03 0.02 0.02 0.03 0.03 0.05 0.05 0.04 0.03 0.02 0.02 0.02 0.01 0.01 0.01 0.01 0.01 0.01 0.01 0.02 0.03 0.03 0.04 0.04 0.03 0.03 0.02 0.02 0.02 0.02 0.03 0.04 0.04 0.05 0.05 0.05 0.04 0.04
0.02 0.02 0.03 0.03 0.03 0.04 0.03 0.02 0.03 0.03 0.04 0.04 0.03 0.03 0.03 0.03 0.03 0.03 0.02 0.02 0.02 0.02 0.01 0.01 0.01 0.02 0.04 0.05 0.05 0.04 0.03 0.02 0.02 0.02 0.03 0.04 0.04 0.05 0.05 0.05 0.04 0.04 0.04
0.02 0.02 0.03 0.04 0.04 0.04 0.04 0.03 0.03 0.03 0.03 0.03 0.03 0.03 0.03 0.04 0.04 0.05 0.05 0.04 0.03 0.03 0.03 0.02 0.02 0.02 0.03 0.05 0.05 0.05 0.03 0.03 0.03 0.03 0.03 0.04 0.04 0.04 0.04 0.04 0.03 0.04 0.04
0.02 0.03 0.03 0.03 0.03 0.04 0.04 0.03 0.03 0.03 0.03 0.03 0.04 0.04 0.04 0.04 0.05 0.06 0.08 0.06 0.05 0.05 0.04 0.03 0.02 0.02 0.03 0.04 0.05 0.05 0.03 0.03 0.03 0.03 0.03 0.04 0.04 0.04 0.04 0.03 0.03 0.03 0.03
0.03 0.04 0.04 0.03 0.03 0.03 0.04 0.04 0.04 0.03 0.03 0.03 0.04 0.04 0.04 0.05 0.06 0.07 0.08 0.07 0.06 0.05 0.05 0.04 0.03 0.02 0.03 0.04 0.04 0.04 0.03 0.03 0.03 0.03 0.03 0.04 0.04 0.05 0.05 0.03 0.03 0.03 0.03
0.04 0.04 0.03 0.03 0.03 0.03 0.02 0.03 0.03 0.04 0.04 0.04 0.04 0.04 0.04 0.06 0.07 0.07 0.07 0.07 0.06 0.06 0.06 0.06 0.05 0.04 0.03 0.04 0.05 0.05 0.03 0.03 0.03 0.03 0.04 0.05 0.05 0.06 0.05 0.03 0.03 0.03 0.03
0.03 0.03 0.03 0.02 0.03 0.03 0.02 0.02 0.02 0.03 0.03 0.04 0.04 0.04 0.05 0.05 0.06 0.06 0.06 0.06 0.06 0.06 0.05 0.05 0.06 0.06 0.04 0.04 0.04 0.05 0.04 0.03 0.03 0.03 0.04 0.04 0.05 0.06 0.05 0.03 0.03 0.03 0.02
0.02 0.02 0.03 0.02 0.02 0.03 0.04 0.03 0.02 0.02 0.03 0.04 0.05 0.06 0.06 0.06 0.06 0.06 0.06 0.06 0.05 0.05 0.05 0.04 0.05 0.05 0.05 0.05 0.04 0.04 0.04 0.04 0.03 0.03 0.03 0.04 0.05 0.06 0.06 0.04 0.04 0.04 0.03
0.01 0.01 0.02 0.02 0.02 0.03 0.03 0.04 0.04 0.04 0.05 0.05 0.06 0.07 0.08 0.07 0.06 0.06 0.06 0.05 0.05 0.05 0.05 0.04 0.04 0.05 0.05 0.05 0.06 0.04 0.04 0.03 0.03 0.03 0.04 0.04 0.05 0.06 0.05 0.05 0.05 0.04 0.04
0.01 0.01 0.01 0.01 0.02 0.02 0.03 0.04 0.05 0.06 0.06 0.07 0.08 0.08 0.08 0.08 0.07 0.07 0.06 0.05 0.05 0.05 0.04 0.04 0.04 0.04 0.04 0.05 0.06 0.06 0.05 0.05 0.05 0.05 0.05 0.06 0.06 0.06 0.05 0.05 0.05 0.05 0.06
0.01 0.01 0.01 0.01 0.02 0.02 0.03 0.04 0.05 0.05 0.06 0.07 0.08 0.08 0.08 0.07 0.06 0.06 0.05 0.06 0.06 0.06 0.05 0.05 0.04 0.04 0.04 0.05 0.05 0.05 0.05 0.05 0.05 0.05 0.05 0.05 0.06 0.06 0.06 0.07 0.07 0.07 0.07
0.01 0.01 0.01 0.01 0.02 0.02 0.03 0.04 0.05 0.05 0.05 0.06 0.06 0.06 0.07 0.07 0.05 0.05 0.05 0.06 0.07 0.06 0.05 0.05 0.04 0.04 0.04 0.05 0.05 0.06 0.06 0.06 0.06 0.06 0.06 0.06 0.06 0.05 0.06 0.07 0.07 0.07 0.07
MSLP
1018.64 1018.00 1017.24 1016.42 1015.62 1014.91 1014.30 1013.82 1013.45 1013.16 1012.91 1012.67 1012.42 1012.15 1011.86 1011.54 1011.19 1010.81 1010.40 1009.94 1009.47 1008.99 1008.56 1008.24 1008.09 1008.17 1008.54 1009.18 1010.10 1011.22 1012.48 1013.77 1015.00 1016.09 1017.01 1017.72 1018.26 1018.65 1018.94 1019.19 1019.44 1019.70 1020.00
1018.61 1017.97 1017.19 1016.33 1015.48 1014.70 1014.04 1013.52 1013.14 1012.86 1012.65 1012.46 1012.25 1012.01 1011.71 1011.35 1010.94 1010.48 1009.99 1009.48 1008.97 1008.51 1008.12 1007.88 1007.82 1007.98 1008.40 1009.08 1010.01 1011.12 1012.35 1013.63 1014.86 1015.98 1016.94 1017.72 1018.34 1018.81 1019.18 1019.48 1019.77 1020.07 1020.38
1018.45 1017.83 1017.05 1016.18 1015.30 1014.48 1013.77 1013.22 1012.82 1012.55 1012.36 1012.20 1012.03 1011.81 1011.51 1011.12 1010.65 1010.12 1009.56 1009.00 1008.48 1008.03 1007.69 1007.51 1007.53 1007.78 1008.26 1008.98 1009.92 1011.02 1012.24 1013.49 1014.71 1015.85 1016.84 1017.69 1018.38 1018.94 1019.38 1019.77 1020.12 1020.45 1020.79
1018.11 1017.53 1016.80 1015.96 1015.08 1014.23 1013.49 1012.90 1012.48 1012.20 1012.02 1011.89 1011.75 1011.55 1011.26 1010.86 1010.36 1009.78 1009.17 1008.58 1008.03 1007.59 1007.29 1007.18 1007.27 1007.58 1008.12 1008.87 1009.82 1010.91 1012.11 1013.34 1014.55 1015.68 1016.70 1017.59 1018.35 1018.98 1019.50 1019.97 1020.39 1020.78 1021.16
1017.59 1017.08 1016.41 1015.62 1014.77 1013.93 1013.16 1012.54 1012.08 1011.79 1011.61 1011.50 1011.39 1011.23 1010.96 1010.58 1010.07 1009.49 1008.86 1008.23 1007.68 1007.24 1006.96 1006.89 1007.03 1007.39 1007.97 1008.75 1009.70 1010.78 1011.95 1013.15 1014.34 1015.46 1016.48 1017.40 1018.19 1018.88 1019.48 1020.01 1020.50 1020.97 1021.42
1016.88 1016.45 1015.87 1015.16 1014.35 1013.52 1012.75 1012.09 1011.60 1011.28 1011.10 1011.01 1010.94 1010.82 1010.61 1010.27 1009.81 1009.23 1008.61 1007.98 1007.42 1006.98 1006.71 1006.65 1006.82 1007.20 1007.80 1008.59 1009.54 1010.61 1011.75 1012.91 1014.06 1015.15 1016.17 1017.08 1017.89 1018.62 1019.26 1019.86 1020.42 1020.97 1021.49
1016.00 1015.66 1015.18 1014.55 1013.80 1013.00 1012.22 1011.54 1011.02 1010.67 1010.48 1010.40 1010.38 1010.32 1010.19 1009.92 1009.52 1009.00 1008.40 1007.79 1007.23 1006.79 1006.52 1006.46 1006.62 1007.01 1007.62 1008.40 1009.34 1010.38 1011.49 1012.61 1013.72 1014.77 1015.74 1016.63 1017.44 1018.17 1018.85 1019.50 1020.13 1020.75 1021.36
1015.03 1014.75 1014.36 1013.82 1013.14 1012.36 1011.59 1010.88 1010.32 1009.95 1009.75 1009.69 1009.70 1009.72 1009.67 1009.49 1009.17 1008.72 1008.18 1007.60 1007.06 1006.62 1006.34 1006.27 1006.42 1006.81 1007.40 1008.18 1009.10 1010.11 1011.18 1012.26 1013.31 1014.31 1015.23 1016.08 1016.86 1017.59 1018.28 1018.97 1019.65 1020.35 1021.05
1014.02 1013.80 1013.48 1013.01 1012.37 1011.63 1010.85 1010.13 1009.54 1009.14 1008.93 1008.88 1008.93 1009.01 1009.04 1008.95 1008.72 1008.35 1007.87 1007.33 1006.81 1006.39 1006.11 1006.04 1006.18 1006.56 1007.15 1007.92 1008.82 1009.82 1010.86 1011.90 1012.90 1013.84 1014.70 1015.50 1016.24 1016.94 1017.63 1018.34 1019.07 1019.83 1020.62
1013.07 1012.87 1012.59 1012.15 1011.55 1010.83 1010.05 1009.31 1008.70 1008.28 1008.05 1008.01 1008.08 1008.20 1008.29 1008.28 1008.12 1007.82 1007.41 1006.92 1006.45 1006.05 1005.79 1005.73 1005.89 1006.28 1006.88 1007.66 1008.56 1009.55 1010.57 1011.57 1012.53 1013.41 1014.22 1014.97 1015.66 1016.33 1017.01 1017.72 1018.48 1019.30 1020.16
1012.25 1012.02 1011.74 1011.31 1010.71 1009.99 1009.22 1008.47 1007.85 1007.41 1007.17 1007.11 1007.19 1007.33 1007.44 1007.47 1007.37 1007.12 1006.76 1006.34 1005.91 1005.57 1005.35 1005.34 1005.55 1005.98 1006.62 1007.43 1008.36 1009.36 1010.37 1011.35 1012.28 1013.12 1013.89 1014.58 1015.23 1015.86 1016.52 1017.23 1018.01 1018.87 1019.78
1011.58 1011.28 1010.94 1010.48 1009.87 1009.14 1008.36 1007.62 1007.00 1006.55 1006.31 1006.24 1006.30 1006.43 1006.54 1006.57 1006.49 1006.28 1005.96 1005.59 1005.24 1004.96 1004.83 1004.90 1005.19 1005.71 1006.42 1007.29 1008.26 1009.29 1010.32 1011.31 1012.22 1013.03 1013.76 1014.41 1015.03 1015.63 1016.27 1016.97 1017.75 1018.62 1019.56
1011.04 1010.63 1010.19 1009.65 1009.00 1008.26 1007.49 1006.76 1006.16 1005.73 1005.48 1005.40 1005.44 1005.53 1005.61 1005.63 1005.53 1005.34 1005.06 1004.75 1004.47 1004.29 1004.27 1004.46 1004.88 1005.50 1006.32 1007.28 1008.33 1009.41 1010.47 1011.47 1012.37 1013.17 1013.88 1014.50 1015.09 1015.67 1016.28 1016.97 1017.74 1018.60 1019.54
1010.58 1010.01 1009.42 1008.78 1008.06 1007.30 1006.55 1005.86 1005.30 1004.91 1004.68 1004.60 1004.61 1004.67 1004.71 1004.69 1004.57 1004.38 1004.13 1003.88 1003.70 1003.64 1003.76 1004.10 1004.66 1005.43 1006.37 1007.44 1008.57 1009.71 1010.81 1011.83 1012.74 1013.54 1014.23 1014.85 1015.42 1015.98 1016.58 1017.24 1017.99 1018.83 1019.75
1010.13 1009.35 1008.59 1007.81 1007.01 1006.22 1005.49 1004.86 1004.37 1004.04 1003.86 1003.81 1003.82 1003.85 1003.86 1003.80 1003.67 1003.48 1003.27 1003.10 1003.03 1003.11 1003.39 1003.89 1004.61 1005.53 1006.60 1007.78 1008.99 1010.20 1011.33 1012.37 1013.29 1014.09 1014.79 1015.40 1015.97 1016.53 1017.12 1017.76 1018.49 1019.29 1020.17
1009.62 1008.61 1007.63 1006.70 1005.80 1004.99 1004.29 1003.72 1003.33 1003.09 1002.99 1002.98 1003.03 1003.07 1003.06 1003.00 1002.87 1002.71 1002.56 1002.49 1002.54 1002.77 1003.21 1003.88 1004.77 1005.83 1007.02 1008.29 1009.57 1010.82 1011.98 1013.03 1013.96 1014.77 1015.47 1016.10 1016.68 1017.25 1017.84 1018.47 1019.17 1019.94 1020.76
1009.03 1007.76 1006.56 1005.45 1004.45 1003.60 1002.92 1002.43 1002.14 1002.02 1002.02 1002.10 1002.21 1002.29 1002.32 1002.29 1002.21 1002.12 1002.06 1002.10 1002.29 1002.68 1003.28 1004.11 1005.13 1006.31 1007.60 1008.93 1010.25 1011.52 1012.69 1013.75 1014.68 1015.50 1016.22 1016.87 1017.47 1018.06 1018.67 1019.31 1019.99 1020.71 1021.48
1008.38 1006.85 1005.42 1004.13 1003.01 1002.12 1001.45 1001.03 1000.84 1000.83 1000.95 1001.14 1001.35 1001.52 1001.64 1001.69 1001.70 1001.71 1001.78 1001.97 1002.31 1002.85 1003.60 1004.56 1005.69 1006.95 1008.29 1009.66 1010.99 1012.25 1013.41 1014.46 1015.39 1016.22 1016.97 1017.65 1018.29 1018.92 1019.55 1020.20 1020.87 1021.56 1022.27
1007.78 1006.00 1004.34 1002.86 1001.63 1000.66 1000.00 999.62 999.51 999.60 999.84 1000.16 1000.48 1000.78 1001.01 1001.19 1001.34 1001.51 1001.73 1002.07 1002.57 1003.26 1004.14 1005.20 1006.41 1007.71 1009.07 1010.42 1011.74 1012.97 1014.11 1015.14 1016.07 1016.91 1017.69 1018.41 1019.10 1019.78 1020.45 1021.11 1021.77 1022.43 1023.08
1007.33 1005.33 1003.46 1001.82 1000.45 999.41 998.71 998.35 998.29 998.46 998.80 999.22 999.67 1000.10 1000.49 1000.83 1001.15 1001.48 1001.88 1002.39 1003.05 1003.87 1004.85 1005.98 1007.23 1008.54 1009.88 1011.20 1012.47 1013.66 1014.76 1015.77 1016.70 1017.56 1018.38 1019.15 1019.89 1020.62 1021.32 1022.00 1022.66 1023.28 1023.87
1007.15 1004.97 1002.94 1001.15 999.66 998.53 997.78 997.39 997.34 997.55 997.95 998.46 999.02 999.58 1000.11 1000.62 1001.12 1001.64 1002.22 1002.89 1003.69 1004.62 1005.68 1006.86 1008.11 1009.41 1010.71 1011.97 1013.18 1014.32 1015.39 1016.38 1017.32 1018.20 1019.05 1019.87 1020.67 1021.43 1022.17 1022.86 1023.50 1024.09 1024.62
1007.32 1005.03 1002.88 1000.98 999.39 998.17 997.35 996.91 996.83 997.03 997.44 998.00 998.63 999.29 999.96 1000.62 1001.28 1001.97 1002.72 1003.54 1004.46 1005.49 1006.60 1007.80 1009.04 1010.30 1011.55 1012.75 1013.90 1015.00 1016.03 1017.01 1017.95 1018.86 1019.74 1020.60 1021.43 1022.23 1022.97 1023.66 1024.28 1024.82 1025.29
1007.87 1005.53 1003.33 1001.36 999.70 998.41 997.51 997.00 996.85 997.01 997.39 997.95 998.61 999.33 1000.09 1000.87 1001.67 1002.50 1003.38 1004.32 1005.34 1006.43 1007.58 1008.78 1010.00 1011.22 1012.41 1013.56 1014.66 1015.71 1016.72 1017.69 1018.63 1019.55 1020.46 1021.34 1022.18 1022.99 1023.73 1024.40 1024.98 1025.47 1025.87
1008.74 1006.43 1004.24 1002.26 1000.58 999.24 998.28 997.70 997.47 997.54 997.87 998.38 999.02 999.76 1000.56 1001.40 1002.29 1003.22 1004.20 1005.23 1006.31 1007.44 1008.61 1009.81 1011.00 1012.17 1013.31 1014.42 1015.48 1016.50 1017.48 1018.44 1019.38 1020.30 1021.21 1022.09 1022.92 1023.71 1024.42 1025.05 1025.58 1026.02 1026.36
1009.85 1007.63 1005.51 1003.59 1001.93 1000.60 999.60 998.95 998.64 998.62 998.86 999.29 999.87 1000.58 1001.37 1002.24 1003.17 1004.14 1005.17 1006.25 1007.37 1008.53 1009.70 1010.88 1012.04 1013.18 1014.29 1015.35 1016.38 1017.37 1018.33 1019.27 1020.19 1021.10 1021.98 1022.82 1023.63 1024.36 1025.02 1025.59 1026.07 1026.46 1026.75
1011.05 1008.98 1007.00 1005.19 1003.61 1002.31 1001.32 1000.64 1000.26 1000.16 1000.29 1000.63 1001.13 1001.77 1002.52 1003.36 1004.28 1005.26 1006.31 1007.40 1008.53 1009.68 1010.85 1012.01 1013.15 1014.26 1015.33 1016.37 1017.36 1018.33 1019.26 1020.17 1021.05 1021.91 1022.74 1023.53 1024.26 1024.93 1025.52 1026.03 1026.45 1026.79 1027.05
Thickness
5562 5561 5560 5558 5557 5556 5556 5556 5556 5556 5556 5557 5560 5561 5563 5565 5567 5569 5572 5574 5575 5577 5578 5579 5579 5579 5579 5579 5580 5581 5582 5582 5584 5585 5587 5590 5593 5594 5595 5595 5595 5595 5594
5553 5553 5552 5549 5548 5548 5548 5549 5549 5549 5549 5550 5552 5553 5554 5555 5558 5560 5563 5565 5566 5567 5569 5569 5570 5570 5570 5570 5570 5571 5571 5572 5573 5573 5574 5577 5580 5582 5584 5583 5583 5583 5583
5547 5546 5544 5542 5541 5541 5541 5543 5542 5541 5541 5542 5543 5543 5543 5546 5547 5550 5553 5555 5556 5558 5559 5560 5561 5561 5561 5561 5561 5561 5561 5561 5561 5562 5562 5563 5568 5569 5572 5572 5572 5572 5571
5541 5540 5538 5537 5535 5535 5535 5534 5534 5533 5533 5533 5532 5533 5533 5535 5538 5541 5543 5545 5547 5548 5550 5551 5552 5553 5553 5552 5552 5552 5552 5551 5551 5551 5552 5552 5554 5555 5560 5562 5561 5561 5561
5535 5534 5533 5532 5530 5528 5527 5526 5525 5525 5524 5524 5523 5524 5525 5526 5528 5531 5533 5534 5536 5538 5540 5541 5543 5544 5544 5544 5543 5543 5542 5542 5542 5541 5542 5543 5544 5544 5546 5551 5552 5551 5551
5529 5528 5527 5525 5523 5521 5519 5517 5516 5516 5516 5515 5514 5515 5516 5517 5519 5521 5523 5525 5527 5529 5531 5533 5534 5535 5536 5536 5535 5535 5534 5533 5534 5534 5534 5535 5535 5536 5536 5538 5540 5540 5542
5522 5520 5519 5517 5515 5513 5511 5510 5509 5509 5508 5508 5507 5507 5508 5509 5511 5513 5514 5516 5518 5520 5522 5524 5525 5526 5527 5527 5528 5527 5526 5525 5525 5526 5526 5527 5528 5528 5529 5529 5529 5529 5532
5515 5514 5512 5510 5507 5505 5504 5502 5502 5502 5501 5501 5501 5500 5501 5502 5503 5505 5506 5508 5510 5512 5513 5515 5516 5517 5518 5519 5520 5519 5519 5518 5518 5519 5518 5519 5519 5520 5521 5522 5520 5520 5522
5508 5507 5506 5503 5501 5498 5496 5495 5495 5495 5494 5494 5495 5494 5494 5495 5497 5498 5498 5500 5502 5504 5505 5506 5507 5508 5510 5511 5512 5512 5512 5511 5511 5511 5511 5512 5512 5512 5513 5514 5514 5513 5514
5501 5499 5498 5496 5494 5491 5490 5489 5488 5488 5488 5488 5488 5489 5489 5490 5490 5491 5491 5492 5493 5494 5495 5497 5498 5500 5502 5503 5503 5504 5505 5504 5504 5504 5505 5505 5505 5505 5506 5506 5506 5507 5507
5494 5492 5489 5488 5486 5484 5483 5482 5482 5482 5483 5483 5483 5482 5483 5484 5484 5484 5485 5485 5486 5486 5487 5488 5490 5492 5493 5494 5495 5497 5497 5497 5497 5497 5498 5499 5498 5497 5498 5498 5499 5499 5500
5487 5485 5482 5480 5478 5477 5477 5476 5476 5477 5478 5478 5477 5477 5477 5477 5477 5478 5479 5479 5479 5479 5480 5480 5482 5484 5485 5486 5488 5489 5490 5490 5490 5491 5491 5491 5491 5489 5489 5491 5491 5492 5493
5480 5477 5475 5473 5472 5471 5471 5471 5471 5472 5472 5472 5471 5472 5472 5472 5472 5473 5473 5473 5473 5473 5473 5473 5475 5476 5477 5479 5480 5481 5482 5482 5483 5483 5483 5483 5483 5482 5482 5483 5484 5484 5485
5472 5470 5468 5467 5466 5465 5465 5466 5467 5467 5467 5466 5466 5466 5467 5467 5467 5468 5467 5467 5467 5466 5466 5467 5467 5468 5469 5470 5471 5473 5473 5474 5474 5474 5474 5474 5475 5475 5476 5476 5476 5476 5476
5467 5464 5462 5460 5459 5459 5460 5460 5460 5461 5461 5460 5460 5460 5461 5461 5461 5462 5461 5461 5460 5460 5460 5459 5460 5460 5461 5463 5463 5465 5465 5465 5465 5465 5465 5466 5466 5467 5468 5469 5469 5469 5469
5462 5459 5456 5455 5454 5453 5453 5453 5454 5454 5453 5453 5453 5453 5454 5454 5454 5454 5454 5454 5454 5453 5452 5452 5452 5452 5453 5455 5457 5457 5456 5456 5456 5456 5457 5457 5457 5458 5459 5461 5462 5463 5462
5455 5453 5451 5450 5448 5447 5447 5447 5448 5447 5446 5446 5446 5446 5447 5447 5447 5447 5447 5447 5446 5445 5444 5444 5443 5443 5444 5446 5447 5448 5448 5447 5447 5448 5448 5448 5449 5449 5450 5452 5452 5452 5453
5449 5447 5445 5444 5443 5442 5442 5441 5441 5440 5440 5440 5439 5439 5439 5440 5440 5439 5439 5438 5438 5437 5436 5436 5436 5435 5436 5438 5438 5438 5438 5438 5438 5439 5439 5440 5440 5442 5443 5443 5442 5441 5442
5443 5440 5438 5437 5437 5436 5435 5434 5434 5434 5433 5433 5433 5433 5433 5433 5433 5431 5430 5430 5429 5428 5427 5427 5426 5426 5427 5429 5430 5430 5429 5429 5429 5430 5431 5431 5433 5435 5436 5435 5434 5433 5432
5437 5435 5433 5431 5430 5429 5429 5428 5427 5427 5427 5427 5427 5426 5426 5425 5425 5424 5422 5422 5420 5419 5419 5419 5418 5418 5418 5420 5421 5422 5422 5422 5422 5421 5422 5424 5425 5426 5427 5427 5425 5424 5423
5431 5430 5428 5425 5424 5423 5422 5422 5421 5421 5421 5421 5420 5420 5419 5418 5416 5415 5415 5414 5413 5412 5411 5411 5410 5410 5411 5412 5414 5415 5415 5415 5414 5413 5413 5415 5417 5417 5418 5419 5418 5417 5416
5425 5424 5422 5420 5419 5417 5416 5415 5415 5416 5415 5415 5414 5413 5412 5410 5409 5408 5407 5406 5406 5404 5403 5403 5403 5403 5403 5404 5406 5407 5408 5408 5407 5406 5406 5407 5408 5409 5409 5409 5409 5409 5407
5419 5418 5416 5414 5413 5411 5410 5409 5410 5409 5409 5408 5407 5406 5404 5403 5402 5401 5400 5399 5398 5397 5396 5396 5396 5396 5397 5397 5398 5399 5399 5399 5399 5399 5399 5399 5399 5399 5399 5399 5399 5399 5398
5414 5412 5410 5408 5407 5406 5406 5405 5405 5403 5402 5401 5400 5399 5398 5396 5395 5394 5393 5392 5391 5390 5390 5389 5390 5390 5390 5390 5389 5389 5389 5390 5389 5389 5389 5389 5389 5388 5388 5388 5388 5388 5388
5408 5406 5404 5403 5402 5401 5400 5400 5400 5398 5396 5395 5395 5394 5393 5390 5389 5387 5386 5385 5385 5385 5385 5385 5384 5384 5383 5383 5383 5383 5383 5382 5381 5380 5379 5378 5377 5377 5377 5377 5378 5379 5379
5403 5401 5399 5398 5396 5395 5395 5395 5394 5393 5391 5390 5389 5388 5387 5386 5383 5381 5379 5378 5378 5379 5380 5380 5379 5378 5378 5378 5377 5377 5377 5376 5374 5372 5370 5369 5369 5368 5368 5369 5369 5369 5370